Regional Weather Roundup
Issued by NWS Wilmington, NC

Home | Current Version | Previous Version | Text Only | Print | Product List | Glossary On
Versions: 1 2 3 4 5 6 7 8 9 10 11 12 13 14 15 16 17 18 19 20 21 22 23 24 25 26 27 28 29 30 31 32 33 34 35 36 37 38 39 40 41 42 43 44 45 46 47 48 49 50
000
ASUS42 KILM 051213
RWRILM
RWRILM
REGIONAL HOURLY WEATHER ROUNDUP
NATIONAL WEATHER SERVICE WILMINGTON NC
800 AM EDT SAT SEP 05 2015

NOTE: "FAIR" INDICATES FEW OR NO CLOUDS BELOW 12,000 FEET WITH NO
SIGNIFICANT WEATHER AND/OR OBSTRUCTIONS TO VISIBILITY.

...............WFO WILMINGTON COUNTY WARNING AREA...............

......COASTAL NC AND SC COUNTIES......

CITY           SKY/WX    TMP DP  RH WIND       PRES   REMARKS
WILMINGTON     PTSUNNY   73  71  93 N10       30.05R FOG
N MYRTLE BEACH CLOUDY    74  71  91 NE12      30.05R FOG
MYRTLE BEACH   CLOUDY    73  68  83 N7        30.07R FOG

......INLAND NC AND SC COUNTIES.......

CITY           SKY/WX    TMP DP  RH WIND       PRES   REMARKS
LUMBERTON      MOSUNNY   73  70  90 N9        30.09R FOG
ELIZABETHTOWN  CLOUDY    70  70 100 CALM      30.09R FOG
WHITEVILLE     CLOUDY    71  70  95 CALM      30.07R FOG
FLORENCE       PTSUNNY   73  70  90 N8        30.09R FOG
DARLINGTON     PTSUNNY   72  68  88 N8        30.12R

....................REST OF NORTH CAROLINA......................

.........EASTERN NC.........

CITY           SKY/WX    TMP DP  RH WIND       PRES   REMARKS
CAPE HATTERAS  PTSUNNY   79  72  79 NE7       30.04R
JACKSONVILLE   CLOUDY    72  66  83 N8        30.07S
MOREHEAD CITY  PTSUNNY   76  74  93 NE10      30.04R
KENANSVILLE      N/A     71  70  96 N5        30.09S FOG
NEW BERN       MOSUNNY   75  71  87 N10       30.08R
ELIZABETH CITY PTSUNNY   76  73  91 N9        30.08S

.........CENTRAL NC.........

CITY           SKY/WX    TMP DP  RH WIND       PRES   REMARKS
RALEIGH DURHAM FOG       70  70 100 NE7       30.15R VSB 1/8
ROCKY MOUNT    CLOUDY    73  71  93 N10       30.12R FOG
ROANOKE RAPIDS NOT AVBL
FAYETTEVILLE   PTSUNNY   72  70  93 N8        30.10R FOG
HOFFMAN        PTSUNNY   72  70  94 NE7       30.12R FOG

.........WESTERN NC.........

CITY           SKY/WX    TMP DP  RH WIND       PRES   REMARKS
CHARLOTTE      PTSUNNY   72  67  84 NE7       30.16R
GREENSBORO     CLOUDY    70  68  93 NE7       30.18R FOG
HICKORY        NOT AVBL
BOONE          NOT AVBL
ASHEVILLE      NOT AVBL

.....................REST OF SOUTH CAROLINA.....................

.........EASTERN SC.........

CITY           SKY/WX    TMP DP  RH WIND       PRES   REMARKS
CHARLESTON     MOSUNNY   73  68  84 NE10      30.04S
BEAUFORT MCAS  MOSUNNY   74  69  85 NE8       30.06R
HILTON HEAD    MOSUNNY   75  70  83 N9        30.06R

.........CENTRAL SC.........

CITY           SKY/WX    TMP DP  RH WIND       PRES   REMARKS
COLUMBIA       MOSUNNY   73  68  84 N6        30.09R
ORANGEBURG     SUNNY     72  68  87 NE7       30.08R
SUMTER SHAW    PTSUNNY   72  69  92 NE7       30.07R

.........WESTERN SC.........

CITY           SKY/WX    TMP DP  RH WIND       PRES   REMARKS
GREENVILLE     NOT AVBL
ROCK HILL      SUNNY     71  67  87 NE5       30.15R FOG
ANDERSON       SUNNY     71  65  81 NE10      30.13R
CLEMSON        NOT AVBL
GREENWOOD      SUNNY     69  67  93 N5        30.14R FOG


...................COASTAL AND OFFSHORE REPORTS..................

................LOCAL PIERS AND NC RESERVE................


STATION/POSITION TIME  SKY/WX   TEMP    WIND        PRES    VSBY
                                AIR SEA DIR/SP/G
                 (UTC)          (F)     (DEG/KT/KT) (MB)    (MI)
JOHNY MRCER PIER 1100            74 84  360/ 10/ 13 1016.7R
NC RESRV MASNBRO NOT AVBL
OCEAN CREST PIER NOT AVBL
SPRINGMAID  PIER 1100            73 84  350/  7/  8 1017.1R


................COASTAL AND OFFSHORE BUOYS................


STATION/POSITION TIME  SKY/WX   TEMP    WIND        PRES    VSBY
                                AIR SEA DIR/SP/G
                 (UTC)          (F)     (DEG/KT/KT) (MB)    (MI)
DIMNDSHOAL 41025 1150            80 84   40/ 12/ 14 1016.9R
WVE H/P(F/S)=  3/ 5 WND WVE H/P(F/S)=  2/ 5 SWL H/P/D(F/S/D)=  2/ 40/ 7

CAPE LOOKOUT     1200            80      20/ 16/ 21 1016.8R
ONSLOW BAY 41036 NOT AVBL
ONSLOW BAY 41064 NOT AVBL
ONSLOW BAY 41159 1125               81                N/A
WVE H/P(F/S)=  4/ 5 WND WVE H/P(F/S)=  3/ 5

5SE WRITBC 41038 1108            76 82   20/ 16/ 19 1017.0R
MASNBO INL 41110 NOT AVBL
WILM HARBR 41108 1111               83                N/A
WVE H/P(F/S)=  2/ 3 WND WVE H/P(F/S)=  2/ 3

27SE WRITB 41037 1100            76 82   30/ 17/ 19   N/A
FRYING PAN 41013 1150            81 82   20/ 14/ 17 1016.9R
WVE H/P(F/S)=  2/ 4 WND WVE H/P(F/S)=  2/ 4

SUNST NRSH 41024 1108            74      30/ 12/ 17 1017.2R
CAPRS NRSH 41029 1108            76      20/ 16/ 19 1017.0R
EDISTO     41004 1150            81 83   30/ 12/ 14 1016.1R
WVE H/P(F/S)=  2/ 3 WND WVE H/P(F/S)=  2/ 3



..........OFFSHORE BUOYS BEYOND 100 NM OFFSHORE...........
.....IN A TRIANGLE---HAT TO BERMUDA TO BAHAMAS TO HAT.....


STATION/POSITION TIME  SKY/WX   TEMP    WIND        PRES    VSBY
                                AIR SEA DIR/SP/G
                 (UTC)          (F)     (DEG/KT/KT) (MB)    (MI)
150E HAT   41001 1200            81 82   60/ 10/ 12 1016.5R
W BERMUDA  41048 1150            82 83   30/  8/ 10 1014.4R
WVE H/P(F/S)=  2/ 4 WND WVE H/P(F/S)=  2/ 4 SWL H/P/D(F/S/D)=  2/ 10/ 4

ATLANTIC S 41049 1150            83 85  260/  8/ 10 1014.3R
WVE H/P(F/S)=  4/ 8 WND WVE H/P(F/S)=  2/ 4 SWL H/P/D(F/S/D)=  3/ 20/ 8

E BAHAMAS  41046 1150            85 86  190/  4/  6 1016.1R
WVE H/P(F/S)=  2/ 8 SWL H/P/D(F/S/D)=  2/ 80/ 8

NE BAHAMAS 41047 1150            83 86  230/  8/ 10 1013.3R
WVE H/P(F/S)=  2/ 9 WND WVE H/P(F/S)=  2/ 3 SWL H/P/D(F/S/D)=  2/130/ 9

120E CANVRL41010 1120            83 85   50/  8/ 10 1015.0R

END


USA.gov is the U.S. government's official web portal to all federal, state and local government web resources and services.